Regional Weather Roundup
Issued by NWS Midland/Odessa, TX

Skip options and go directly to product.
Home | Oldest Version | Next Version | Current Version | All | Text Only | Save Text | Print | Product List | Glossary On

Skip product version selection by date and time.   
737
ASUS44 KMAF 191501
RWRMAF
MIDLAND AREA WEATHER ROUNDUP
NATIONAL WEATHER SERVICE MIDLAND TX
900 AM CST THU JAN 19 2017

...IN SOUTHWEST TEXAS AND SOUTHEAST NEW MEXICO...

CITY           SKY/WX    TMP DP  RH WIND       PRES   REMARKS
ALPINE         SUNNY     47  31  53 SW10      29.99S
ANDREWS        FAIR      45  36  71 SW10      29.81R WCI  39
ARTESIA        SUNNY     46  34  61 W13       29.80R
BIG SPRING     SUNNY     46  38  74 S13       29.82S WCI  40
CARLSBAD       SUNNY     52  33  48 W28G37    29.79S
DRYDEN           N/A     49  40  71 W9        29.90R
FORT STOCKTON  SUNNY     50  35  56 SW15      29.88R
GUAD PASS      SUNNY     42  32  67 W53G67    29.80F WCI  28
HOBBS          SUNNY     41  36  81 SW12      29.80R WCI  34
MARFA          SUNNY     40  33  76 W8        29.98R WCI  34
MIDLAND AIRPK  SUNNY     52  37  56 SW17      29.82S
MIDLAND INTL   SUNNY     51  36  56 SW17      29.81S
ODESSA         SUNNY     48  35  60 SW17      29.82S
PECOS          SUNNY     52  35  53 SW14G21   29.86R
PRESIDIO       FAIR      45  36  69 CALM      30.00R
SEMINOLE       SUNNY     42  35  76 SW12      29.79S WCI  35
SNYDER         SUNNY     41  39  91 SW13      29.77S WCI  34
WINK           SUNNY     49  36  61 SW14      29.81S
$$
...OTHER STATIONS IN TEXAS...

CITY           SKY/WX    TMP DP  RH WIND       PRES   REMARKS
ABILENE        SUNNY     45  43  93 S16       29.79R WCI  38
AMARILLO       SUNNY     38  30  73 W8        29.60S WCI  32
AUSTIN         CLOUDY    53  51  93 S10       29.90R FOG
BROWNSVILLE    CLOUDY    61  60  97 NW12      29.95R
CORPUS CHRISTI DRIZZLE   57  56  96 CALM      29.94R FOG
DALLAS FTW     FOG       49  49 100 SW12      29.82S VSB 1/8
DEL RIO        FOG       45  45 100 CALM      29.92S VSB<1/4
EL PASO        PTCLDY    48  31  51 W21G31    29.96R
HOUSTON INT    LGT RAIN  55  54  96 SE9       29.91S FOG
LUBBOCK        CLOUDY    45  34  65 SW20      29.68S WCI  37
SAN ANGELO     SUNNY     49  44  83 SW10      29.84S
SAN ANTONIO    LGT RAIN  55  51  86 SW9       29.91S
WACO           CLOUDY    51  50  96 S8        29.87R
WICHITA FALLS  NOT AVBL
$$
...OTHER LOCATIONS IN NEW MEXICO...

CITY           SKY/WX    TMP DP  RH WIND       PRES   REMARKS
ALAMAGORDO     CLOUDY    39  32  75 N6        29.95S WCI  35
ALBUQUERQUE    PTCLDY    32  28  85 SE5       29.93S WCI  27
CANNON AFB     CLOUDY    39  35  88 SW16      29.68R WCI  30
CLOVIS         SUNNY     39  28  65 W20G26    29.66S WCI  30
HOLLOMAN AFB   CLEAR     38  33  81 N5        29.97S WCI  35
ROSWELL        SUNNY     39  29  67 SW8       29.77S WCI  33
RUIDOSO        CLOUDY    37  16  41 SW9G22    29.83F WCI  31
SANTA FE       CLOUDY    33  25  72 N10       29.88R WCI  25
TRUTH OR CONSE PTCLDY    40  28  62 NW13      29.93S WCI  32
TUCUMCARI      CLOUDY    35  28  75 W8        29.64R WCI  29
$$

  • National Weather Service
  • Southern Region Headquarters
  • 819 Taylor Street, Room 10A06
  • Fort Worth, TX 76102
  • Page Author: NWS Fort Worth
  • Web Master: SR-SRH.Webmaster@noaa.gov
  •  
  • Page last modified: 30-Sep-2016 6:36 PM UTC
USA.gov is the U.S. government's official web portal to all federal, state and local government web resources and services.